This is the latest recevied weather packets stored in our database for station/object KD8FRE. If no packets are shown the sender has not sent any weather packets the latest 10 day(s).
| Time | Temp. | Humidity | Pressure | Rain* | Wind** | Luminosity | Snow |
|---|---|---|---|---|---|---|---|
| 1778124014 | 8.89° C | 50% | 1013.5 hPa | 0 mm | - | 0 W/m² | - |
| 1778123710 | 8.89° C | 50% | 1013.5 hPa | 0 mm | - | 0 W/m² | - |
| 1778123408 | 8.89° C | 50% | 1013.5 hPa | 0 mm | - | 0 W/m² | - |
| 1778123104 | 8.89° C | 49% | 1013.5 hPa | 0 mm | - | 0 W/m² | - |
| 1778122802 | 8.89° C | 50% | 1013.6 hPa | 0 mm | - | 0 W/m² | - |
| 1778122499 | 8.89° C | 48% | 1013.6 hPa | 0 mm | - | 0 W/m² | - |
| 1778122197 | 8.89° C | 50% | 1013.7 hPa | 0 mm | - | 0 W/m² | - |
| 1778121894 | 8.89° C | 47% | 1013.6 hPa | 0 mm | - | 0 W/m² | - |
| 1778121590 | 9.44° C | 48% | 1013.6 hPa | 0 mm | - | 0 W/m² | - |
| 1778121287 | 9.44° C | 48% | 1013.6 hPa | 0 mm | - | 0 W/m² | - |
| 1778120984 | 9.44° C | 47% | 1013.5 hPa | 0 mm | - | 0 W/m² | - |
| 1778120681 | 9.44° C | 46% | 1013.6 hPa | 0 mm | - | 0 W/m² | - |
| 1778120376 | 9.44° C | 44% | 1013.4 hPa | 0 mm | - | 0 W/m² | - |
| 1778120071 | 9.44° C | 44% | 1013.5 hPa | 0 mm | - | 0 W/m² | - |
| 1778119770 | 9.44° C | 44% | 1013.4 hPa | 0 mm | - | 0 W/m² | - |
| 1778119466 | 9.44° C | 45% | 1013.4 hPa | 0 mm | - | 0 W/m² | - |
| 1778119163 | 9.44° C | 44% | 1013.3 hPa | 0 mm | - | 0 W/m² | - |
| 1778118862 | 10° C | 44% | 1013.5 hPa | 0 mm | - | 0 W/m² | - |
| 1778118558 | 10° C | 43% | 1013.3 hPa | 0 mm | - | 0 W/m² | - |
| 1778118255 | 10° C | 44% | 1013.3 hPa | 0 mm | - | 0 W/m² | - |
| 1778117951 | 10° C | 43% | 1013.2 hPa | 0 mm | - | 0 W/m² | - |
| 1778117648 | 10° C | 43% | 1013.3 hPa | 0 mm | - | 0 W/m² | - |
| 1778117346 | 10° C | 43% | 1013.2 hPa | 0 mm | - | 0 W/m² | - |
| 1778117042 | 10° C | 43% | 1013.1 hPa | 0 mm | - | 0 W/m² | - |
| 1778116739 | 10° C | 43% | 1013.1 hPa | 0 mm | - | 0 W/m² | - |
* Rain latest hour (hover to see other rain measurements)
** Current wind speed in m/s (hover to see current wind gust speed)